Time,TemperatureF,DewpointF,PressureIn,WindDirection,WindDirectionDegrees,WindSpeedMPH,WindSpeedGustMPH,Humidity,HourlyPrecipIn,Conditions,Clouds,dailyrainin,SoftwareType,DateUTC
2013-10-19 00:03:00,49.9,39.0,29.83,SSW,195,0.0,-999.0,67,-99.99,,,0.00,weatherlink.com 1.10,2013-10-19 04:03:00,
2013-10-19 00:18:00,49.6,39.0,29.83,South,182,1.0,-999.0,68,-99.99,,,0.00,weatherlink.com 1.10,2013-10-19 04:18:00,
2013-10-19 00:33:00,49.4,40.0,29.82,WSW,241,0.0,-999.0,69,-99.99,,,0.00,weatherlink.com 1.10,2013-10-19 04:33:00,
2013-10-19 00:48:00,49.2,40.0,29.82,SW,233,0.0,-999.0,70,-99.99,,,0.00,weatherlink.com 1.10,2013-10-19 04:48:00,
2013-10-19 01:03:00,49.2,40.0,29.81,SSW,203,0.0,-999.0,70,-99.99,,,0.00,weatherlink.com 1.10,2013-10-19 05:03:00,
2013-10-19 01:18:00,49.1,40.0,29.81,SW,224,0.0,-999.0,70,-99.99,,,0.00,weatherlink.com 1.10,2013-10-19 05:18:00,
2013-10-19 01:33:00,48.8,40.0,29.81,South,189,6.0,-999.0,71,-99.99,,,0.00,weatherlink.com 1.10,2013-10-19 05:33:00,
2013-10-19 01:48:00,48.8,40.0,29.81,South,186,0.0,-999.0,72,-99.99,,,0.00,weatherlink.com 1.10,2013-10-19 05:48:00,
2013-10-19 02:03:00,48.9,40.0,29.81,SSE,162,0.0,-999.0,71,-99.99,,,0.00,weatherlink.com 1.10,2013-10-19 06:03:00,
2013-10-19 02:18:00,49.5,40.0,29.81,SSW,210,4.0,-999.0,70,-99.99,,,0.00,weatherlink.com 1.10,2013-10-19 06:18:00,
2013-10-19 02:33:00,49.5,40.0,29.80,WSW,244,0.0,-999.0,70,-99.99,,,0.00,weatherlink.com 1.10,2013-10-19 06:33:00,
2013-10-19 02:48:00,48.8,40.0,29.80,SW,224,1.0,-999.0,71,-99.99,,,0.00,weatherlink.com 1.10,2013-10-19 06:48:00,
2013-10-19 03:03:00,48.2,40.0,29.80,SW,220,0.0,-999.0,73,-99.99,,,0.00,weatherlink.com 1.10,2013-10-19 07:03:00,
2013-10-19 03:18:00,48.0,40.0,29.80,WSW,240,6.0,-999.0,74,-99.99,,,0.00,weatherlink.com 1.10,2013-10-19 07:18:00,
2013-10-19 03:33:00,48.6,40.0,29.81,SSW,199,0.0,-999.0,73,-99.99,,,0.00,weatherlink.com 1.10,2013-10-19 07:33:00,
2013-10-19 03:48:00,48.6,40.0,29.80,SSW,198,1.0,-999.0,72,-99.99,,,0.00,weatherlink.com 1.10,2013-10-19 07:48:00,
2013-10-19 04:03:00,48.3,40.0,29.79,WSW,241,0.0,-999.0,73,-99.99,,,0.00,weatherlink.com 1.10,2013-10-19 08:03:00,
2013-10-19 04:18:00,47.9,40.0,29.79,South,185,0.0,-999.0,75,-99.99,,,0.00,weatherlink.com 1.10,2013-10-19 08:18:00,
2013-10-19 04:33:00,47.4,40.0,29.79,South,174,0.0,-999.0,76,-99.99,,,0.00,weatherlink.com 1.10,2013-10-19 08:33:00,
2013-10-19 04:48:00,47.1,40.0,29.78,South,184,0.0,-999.0,76,-99.99,,,0.00,weatherlink.com 1.10,2013-10-19 08:48:00,
2013-10-19 05:03:00,47.0,40.0,29.78,South,188,0.0,-999.0,76,-99.99,,,0.00,weatherlink.com 1.10,2013-10-19 09:03:00,
2013-10-19 05:18:00,47.1,40.0,29.78,SSW,209,0.0,-999.0,76,-99.99,,,0.00,weatherlink.com 1.10,2013-10-19 09:18:00,
2013-10-19 05:33:00,47.1,40.0,29.77,SSW,195,0.0,-999.0,77,-99.99,,,0.00,weatherlink.com 1.10,2013-10-19 09:33:00,
2013-10-19 05:48:00,47.4,40.0,29.78,South,172,0.0,-999.0,76,-99.99,,,0.00,weatherlink.com 1.10,2013-10-19 09:48:00,
2013-10-19 06:03:00,47.1,40.0,29.78,SSW,208,0.0,-999.0,76,-99.99,,,0.00,weatherlink.com 1.10,2013-10-19 10:03:00,
2013-10-19 06:18:00,46.5,40.0,29.77,SSW,192,0.0,-999.0,78,-99.99,,,0.00,weatherlink.com 1.10,2013-10-19 10:18:00,
2013-10-19 06:33:00,46.1,40.0,29.77,South,188,0.0,-999.0,79,-99.99,,,0.00,weatherlink.com 1.10,2013-10-19 10:33:00,
2013-10-19 06:48:00,45.7,40.0,29.77,South,186,0.0,-999.0,80,-99.99,,,0.00,weatherlink.com 1.10,2013-10-19 10:48:00,
2013-10-19 07:03:00,45.7,40.0,29.76,South,186,0.0,-999.0,81,-99.99,,,0.00,weatherlink.com 1.10,2013-10-19 11:03:00,
2013-10-19 07:18:00,45.4,40.0,29.76,South,186,1.0,-999.0,81,-99.99,,,0.00,weatherlink.com 1.10,2013-10-19 11:18:00,
2013-10-19 07:33:00,45.5,40.0,29.76,South,186,0.0,-999.0,81,-99.99,,,0.00,weatherlink.com 1.10,2013-10-19 11:33:00,
2013-10-19 07:48:00,45.8,40.0,29.75,SE,130,7.0,-999.0,81,-99.99,,,0.00,weatherlink.com 1.10,2013-10-19 11:48:00,
2013-10-19 08:03:00,46.2,40.0,29.75,SSE,167,0.0,-999.0,79,-99.99,,,0.00,weatherlink.com 1.10,2013-10-19 12:03:00,
2013-10-19 08:18:00,46.4,40.0,29.75,ESE,120,0.0,-999.0,78,-99.99,,,0.00,weatherlink.com 1.10,2013-10-19 12:18:00,
2013-10-19 08:33:00,46.7,40.0,29.75,SE,136,0.0,-999.0,78,-99.99,,,0.00,weatherlink.com 1.10,2013-10-19 12:33:00,
2013-10-19 08:48:00,46.8,40.0,29.75,SSE,151,0.0,-999.0,78,-99.99,,,0.00,weatherlink.com 1.10,2013-10-19 12:48:00,
2013-10-19 09:03:00,47.1,41.0,29.75,SE,141,1.0,-999.0,78,-99.99,,,0.00,weatherlink.com 1.10,2013-10-19 13:03:00,
2013-10-19 09:18:00,47.4,41.0,29.74,SW,234,0.0,-999.0,77,-99.99,,,0.00,weatherlink.com 1.10,2013-10-19 13:18:00,
2013-10-19 09:33:00,47.9,41.0,29.74,ESE,110,0.0,-999.0,77,-99.99,,,0.00,weatherlink.com 1.10,2013-10-19 13:33:00,
2013-10-19 09:48:00,48.6,41.0,29.74,SSW,205,1.0,-999.0,75,-99.99,,,0.00,weatherlink.com 1.10,2013-10-19 13:48:00,
2013-10-19 10:03:00,49.4,41.0,29.73,ESE,121,1.0,-999.0,74,-99.99,,,0.00,weatherlink.com 1.10,2013-10-19 14:03:00,
2013-10-19 10:18:00,49.9,42.0,29.73,SSE,151,4.0,-999.0,75,-99.99,,,0.00,weatherlink.com 1.10,2013-10-19 14:18:00,
2013-10-19 10:33:00,50.5,42.0,29.72,South,182,5.0,-999.0,73,-99.99,,,0.00,weatherlink.com 1.10,2013-10-19 14:33:00,
2013-10-19 10:48:00,51.0,43.0,29.72,South,182,2.0,-999.0,74,-99.99,,,0.00,weatherlink.com 1.10,2013-10-19 14:48:00,
2013-10-19 11:03:00,51.6,43.0,29.71,SSE,150,1.0,-999.0,73,-99.99,,,0.00,weatherlink.com 1.10,2013-10-19 15:03:00,
2013-10-19 11:18:00,51.7,43.0,29.70,South,189,0.0,-999.0,72,-99.99,,,0.00,weatherlink.com 1.10,2013-10-19 15:18:00,
2013-10-19 11:33:00,52.6,43.0,29.70,SW,219,0.0,-999.0,71,-99.99,,,0.00,weatherlink.com 1.10,2013-10-19 15:33:00,
2013-10-19 11:48:00,53.3,43.0,29.69,SE,138,8.0,-999.0,69,-99.99,,,0.00,weatherlink.com 1.10,2013-10-19 15:48:00,
2013-10-19 12:03:00,53.2,43.0,29.68,South,188,0.0,-999.0,69,-99.99,,,0.00,weatherlink.com 1.10,2013-10-19 16:03:00,
2013-10-19 12:18:00,53.3,43.0,29.68,South,169,0.0,-999.0,69,-99.99,,,0.00,weatherlink.com 1.10,2013-10-19 16:18:00,
2013-10-19 12:33:00,53.6,43.0,29.68,South,171,1.0,-999.0,68,-99.99,,,0.00,weatherlink.com 1.10,2013-10-19 16:33:00,
2013-10-19 12:48:00,53.8,43.0,29.67,SSE,154,1.0,-999.0,68,-99.99,,,0.00,weatherlink.com 1.10,2013-10-19 16:48:00,
2013-10-19 13:03:00,53.3,43.0,29.66,West,260,0.0,-999.0,68,-99.99,,,0.00,weatherlink.com 1.10,2013-10-19 17:03:00,
2013-10-19 13:18:00,52.3,44.0,29.65,SW,219,0.0,-999.0,73,-99.99,,,0.00,weatherlink.com 1.10,2013-10-19 17:18:00,
2013-10-19 13:33:00,51.3,45.0,29.65,SSW,192,0.0,-999.0,78,-99.99,,,0.00,weatherlink.com 1.10,2013-10-19 17:33:00,
2013-10-19 13:48:00,50.5,45.0,29.65,SSW,213,0.0,-999.0,82,-99.99,,,0.00,weatherlink.com 1.10,2013-10-19 17:48:00,
2013-10-19 14:03:00,50.4,46.0,29.64,SSW,213,0.0,-999.0,85,-99.99,,,0.00,weatherlink.com 1.10,2013-10-19 18:03:00,
2013-10-19 14:18:00,50.2,47.0,29.63,SSW,213,0.0,-999.0,87,-99.99,,,0.00,weatherlink.com 1.10,2013-10-19 18:18:00,
2013-10-19 14:33:00,50.2,47.0,29.62,SSW,213,0.0,-999.0,87,-99.99,,,0.00,weatherlink.com 1.10,2013-10-19 18:33:00,
2013-10-19 14:48:00,50.2,47.0,29.61,SSW,213,0.0,-999.0,88,-99.99,,,0.00,weatherlink.com 1.10,2013-10-19 18:48:00,
2013-10-19 15:03:00,49.9,47.0,29.61,SSW,213,0.0,-999.0,88,-99.99,,,0.00,weatherlink.com 1.10,2013-10-19 19:03:00,
2013-10-19 15:18:00,49.9,47.0,29.61,SSW,213,0.0,-999.0,89,-99.99,,,0.00,weatherlink.com 1.10,2013-10-19 19:18:00,
2013-10-19 15:33:00,49.9,47.0,29.60,SSW,213,0.0,-999.0,89,-99.99,,,0.00,weatherlink.com 1.10,2013-10-19 19:33:00,
2013-10-19 15:48:00,49.6,47.0,29.60,South,185,0.0,-999.0,89,-99.99,,,0.00,weatherlink.com 1.10,2013-10-19 19:48:00,
2013-10-19 16:03:00,49.5,46.0,29.60,South,185,0.0,-999.0,89,-99.99,,,0.00,weatherlink.com 1.10,2013-10-19 20:03:00,
2013-10-19 16:18:00,49.5,46.0,29.60,South,185,0.0,-999.0,89,-99.99,,,0.00,weatherlink.com 1.10,2013-10-19 20:18:00,
2013-10-19 16:33:00,-999.0,-99.9,29.60,North,-999,-999.0,-999.0,-999,-99.99,,,0.00,weatherlink.com 1.10,2013-10-19 20:33:00,
2013-10-19 16:48:00,49.1,47.0,29.60,SW,233,0.0,-999.0,91,-99.99,,,0.00,weatherlink.com 1.10,2013-10-19 20:48:00,
2013-10-19 17:03:00,46.8,44.0,29.61,SW,227,2.0,-999.0,91,-99.99,,,0.00,weatherlink.com 1.10,2013-10-19 21:03:00,
2013-10-19 17:18:00,45.7,43.0,29.62,NNW,339,3.0,-999.0,91,-99.99,,,0.00,weatherlink.com 1.10,2013-10-19 21:18:00,
2013-10-19 17:33:00,44.8,42.0,29.63,WNW,302,4.0,-999.0,91,-99.99,,,0.00,weatherlink.com 1.10,2013-10-19 21:33:00,
2013-10-19 17:48:00,44.2,42.0,29.64,West,280,0.0,-999.0,91,-99.99,,,0.00,weatherlink.com 1.10,2013-10-19 21:48:00,
2013-10-19 18:03:00,43.9,42.0,29.65,WSW,257,3.0,-999.0,91,-99.99,,,0.00,weatherlink.com 1.10,2013-10-19 22:03:00,
2013-10-19 18:18:00,43.5,41.0,29.66,NW,315,3.0,-999.0,91,-99.99,,,0.00,weatherlink.com 1.10,2013-10-19 22:18:00,
2013-10-19 18:33:00,43.2,41.0,29.68,North,353,5.0,-999.0,91,-99.99,,,0.00,weatherlink.com 1.10,2013-10-19 22:33:00,
2013-10-19 18:48:00,43.1,41.0,29.68,NNW,332,3.0,-999.0,91,-99.99,,,0.00,weatherlink.com 1.10,2013-10-19 22:48:00,
2013-10-19 19:03:00,42.9,41.0,29.68,SSW,205,0.0,-999.0,91,-99.99,,,0.00,weatherlink.com 1.10,2013-10-19 23:03:00,
2013-10-19 19:18:00,42.9,41.0,29.69,WSW,250,4.0,-999.0,92,-99.99,,,0.00,weatherlink.com 1.10,2013-10-19 23:18:00,
2013-10-19 19:33:00,42.8,41.0,29.70,WSW,246,3.0,-999.0,92,-99.99,,,0.00,weatherlink.com 1.10,2013-10-19 23:33:00,
2013-10-19 19:48:00,42.3,40.0,29.70,WSW,239,9.0,-999.0,91,-99.99,,,0.00,weatherlink.com 1.10,2013-10-19 23:48:00,
2013-10-19 20:03:00,42.2,40.0,29.71,West,265,11.0,-999.0,91,-99.99,,,0.00,weatherlink.com 1.10,2013-10-20 00:03:00,
2013-10-19 20:18:00,42.2,40.0,29.72,SW,233,8.0,-999.0,91,-99.99,,,0.00,weatherlink.com 1.10,2013-10-20 00:18:00,
2013-10-19 20:33:00,42.1,40.0,29.73,West,272,3.0,-999.0,91,-99.99,,,0.00,weatherlink.com 1.10,2013-10-20 00:33:00,
2013-10-19 20:48:00,41.9,40.0,29.73,West,270,4.0,-999.0,91,-99.99,,,0.00,weatherlink.com 1.10,2013-10-20 00:48:00,
2013-10-19 21:03:00,41.9,40.0,29.74,SW,236,0.0,-999.0,91,-99.99,,,0.00,weatherlink.com 1.10,2013-10-20 01:03:00,
2013-10-19 21:18:00,41.6,39.0,29.75,SW,232,7.0,-999.0,91,-99.99,,,0.00,weatherlink.com 1.10,2013-10-20 01:18:00,
2013-10-19 21:33:00,41.6,39.0,29.75,SW,229,3.0,-999.0,91,-99.99,,,0.00,weatherlink.com 1.10,2013-10-20 01:33:00,
2013-10-19 21:48:00,41.5,39.0,29.75,WNW,291,0.0,-999.0,91,-99.99,,,0.00,weatherlink.com 1.10,2013-10-20 01:48:00,
2013-10-19 22:03:00,41.3,39.0,29.77,SSW,209,0.0,-999.0,92,-99.99,,,0.00,weatherlink.com 1.10,2013-10-20 02:03:00,
2013-10-19 22:18:00,41.1,39.0,29.77,SSW,212,0.0,-999.0,92,-99.99,,,0.00,weatherlink.com 1.10,2013-10-20 02:18:00,
2013-10-19 22:33:00,41.1,39.0,29.77,South,181,3.0,-999.0,92,-99.99,,,0.00,weatherlink.com 1.10,2013-10-20 02:33:00,
2013-10-19 22:48:00,40.9,39.0,29.77,SW,227,2.0,-999.0,92,-99.99,,,0.00,weatherlink.com 1.10,2013-10-20 02:48:00,
2013-10-19 23:03:00,40.9,39.0,29.77,South,181,0.0,-999.0,92,-99.99,,,0.00,weatherlink.com 1.10,2013-10-20 03:03:00,
2013-10-19 23:18:00,40.8,38.0,29.77,SW,234,2.0,-999.0,91,-99.99,,,0.00,weatherlink.com 1.10,2013-10-20 03:18:00,
2013-10-19 23:33:00,40.9,39.0,29.79,WSW,253,1.0,-999.0,91,-99.99,,,0.00,weatherlink.com 1.10,2013-10-20 03:33:00,
2013-10-19 23:48:00,40.6,38.0,29.79,NW,309,0.0,-999.0,91,-99.99,,,0.00,weatherlink.com 1.10,2013-10-20 03:48:00,